Regional Weather Roundup
Issued by NWS Raleigh/Durham, NC

Home | Current Version | Previous Version | Text Only | Print | Product List | Glossary On
Versions: 1 2 3 4 5 6 7 8 9 10 11 12 13 14 15 16 17 18 19 20 21 22 23 24 25 26 27 28
000
ASUS42 KRAH 261310
RWRRAH
NORTH CAROLINA WEATHER ROUNDUP
NATIONAL WEATHER SERVICE RALEIGH NC
900 AM EDT WED APR 26 2017

NOTE: "FAIR" INDICATES FEW OR NO CLOUDS BELOW 12,000 FEET WITH NO
SIGNIFICANT WEATHER AND/OR OBSTRUCTIONS TO VISIBILITY.

NCZ001-053-055-056-065-067-261400-
WESTERN NORTH CAROLINA

CITY           SKY/WX    TMP DP  RH WIND       PRES   REMARKS
ASHEVILLE      FOG       53  51  93 N7        29.89R VSB 3/4
JEFFERSON      FOG       50  50  99 CALM      29.89R VSB<1/4
MORGANTON      CLOUDY    61  61  99 CALM      29.90
HICKORY        CLOUDY    62  58  86 CALM      29.85R
RUTHERFORDTON  NOT AVBL
MOUNT AIRY     NOT AVBL
BOONE          NOT AVBL
$$

NCZ021-022-025-041-071-084-088-261400-
CENTRAL NORTH CAROLINA

CITY           SKY/WX    TMP DP  RH WIND       PRES   REMARKS
CHARLOTTE      MOSUNNY   65  58  78 SE7       29.84
GREENSBORO     CLOUDY    60  58  92 W6        29.84R
WINSTON-SALEM  CLOUDY    60  55  83 W3        29.86R
RALEIGH-DURHAM PTSUNNY   63  56  78 W3        29.82R
FORT BRAGG     CLOUDY    63  57  82 CALM      29.83R
FAYETTEVILLE   CLOUDY    65  58  78 CALM      29.83R
BURLINGTON     PTSUNNY   61  57  87 SW6       29.83R
LAURINBURG     CLOUDY    63  59  87 CALM      29.85R
$$

NCZ011-015-027-028-043-044-047-080-103-261400-
NORTHEASTERN NORTH CAROLINA

CITY           SKY/WX    TMP DP  RH WIND       PRES   REMARKS
ROCKY MT-WILSO MOSUNNY   63  58  83 NW5       29.82R
GREENVILLE     PTSUNNY   63  59  88 W5        29.84R
WASHINGTON     CLOUDY    63  59  87 W3        29.81R
ELIZABETH CITY CLOUDY    62  61  96 W8        29.79R FOG
MANTEO         CLOUDY    63  61  94 NW7       29.79R
CAPE HATTERAS  CLOUDY    66  61  84 W9G17     29.80R HAZE
$$

NCZ078-087-090-091-093-098-101-261400-
SOUTHEASTERN NORTH CAROLINA

CITY           SKY/WX    TMP DP  RH WIND       PRES   REMARKS
LUMBERTON      CLOUDY    62  60  93 CALM      29.84R
GOLDSBORO      MOSUNNY   63  61  94 NW6       29.81R
KINSTON        PTSUNNY   64  61  88 CALM      29.83R
KENANSVILLE    MOSUNNY   64  59  82 N3        29.83R
NEW BERN       CLOUDY    64  62  93 W7        29.82R
CHERRY POINT   NOT AVBL
BEAUFORT       CLOUDY    64  62  93 W9        29.82R
JACKSONVILLE   CLOUDY    64  61  90 W10       29.82R
WILMINGTON     CLOUDY    65  59  81 W5        29.83R
$$





USA.gov is the U.S. government's official web portal to all federal, state and local government web resources and services.